Date,TemperatureHighF,TemperatureAvgF,TemperatureLowF,DewpointHighF,DewpointAvgF,DewpointLowF,HumidityHigh,HumidityAvg,HumidityLow,PressureMaxIn,PressureMinIn,WindSpeedMaxMPH,WindSpeedAvgMPH,GustSpeedMaxMPH,PrecipitationSumIn
2013-1-1,51,38,32,-100,-100,-100,0,0,100,0.00,40.00,0,-999,0,0.00
2013-1-2,55,38,27,-100,-100,-100,0,0,100,0.00,40.00,0,-999,0,0.00
2013-1-3,55,38,27,-100,-100,-100,0,0,100,0.00,40.00,0,-999,0,0.00
2013-1-4,55,38,29,-100,-100,-100,0,0,100,0.00,40.00,0,-999,0,0.00
2013-1-5,55,40,32,-100,-100,-100,0,0,100,0.00,40.00,0,-999,0,0.00
2013-1-6,50,43,37,-100,-100,-100,0,0,100,0.00,40.00,0,-999,0,0.00
2013-1-7,53,40,32,-100,-100,-100,0,0,100,0.00,40.00,0,-999,0,0.00
2013-1-8,57,44,33,-100,-100,-100,0,0,100,0.00,40.00,0,-999,0,0.00
2013-1-9,50,43,35,-100,-100,-100,0,0,100,0.00,40.00,0,-999,0,0.00
2013-1-10,50,38,29,-100,-100,-100,0,0,100,0.00,40.00,0,-999,0,0.00
2013-1-11,51,38,25,-100,-100,-100,0,0,100,0.00,40.00,0,-999,0,0.00
2013-1-12,46,36,29,-100,-100,-100,0,0,100,0.00,40.00,0,-999,0,0.00
2013-1-13,44,32,23,-100,-100,-100,0,0,100,0.00,40.00,0,-999,0,0.00
2013-1-14,48,36,27,-100,-100,-100,0,0,100,0.00,40.00,0,-999,0,0.00
2013-1-15,55,39,27,-100,-100,-100,0,0,100,0.00,40.00,0,-999,0,0.00
2013-1-16,55,40,27,-100,-100,-100,0,0,100,0.00,40.00,0,-999,0,0.00
2013-1-17,59,40,27,-100,-100,-100,0,0,100,0.00,40.00,0,-999,0,0.00
2013-1-18,60,42,27,-100,-100,-100,0,0,100,0.00,40.00,0,-999,0,0.00
2013-1-19,60,41,29,-100,-100,-100,0,0,100,0.00,40.00,0,-999,0,0.00
2013-1-20,60,42,29,-100,-100,-100,0,0,100,0.00,40.00,0,-999,0,0.00
2013-1-21,62,43,29,-100,-100,-100,0,0,100,0.00,40.00,0,-999,0,0.00
2013-1-22,62,43,31,-100,-100,-100,0,0,100,0.00,40.00,0,-999,0,0.00
2013-1-23,59,46,41,-100,-100,-100,0,0,100,0.00,40.00,0,-999,0,0.00
2013-1-24,55,48,44,-100,-100,-100,0,0,100,0.00,40.00,0,-999,0,0.00
2013-1-25,66,54,48,-100,-100,-100,0,0,100,0.00,40.00,0,-999,0,0.00
2013-1-26,59,49,39,-100,-100,-100,0,0,100,0.00,40.00,0,-999,0,0.00
2013-1-27,53,42,32,-100,-100,-100,0,0,100,0.00,40.00,0,-999,0,0.00
2013-1-28,55,41,31,-100,-100,-100,0,0,100,0.00,40.00,0,-999,0,0.00
2013-1-29,59,45,33,-100,-100,-100,0,0,100,0.00,40.00,0,-999,0,0.00
2013-1-30,64,47,35,-100,-100,-100,0,0,100,0.00,40.00,0,-999,0,0.00
2013-1-31,64,51,33,-100,-100,-100,0,0,100,0.00,40.00,0,-999,0,0.00
2013-2-1,66,47,32,-100,-100,-100,0,0,100,0.00,40.00,0,-999,0,0.00
2013-2-2,64,49,39,-100,-100,-100,0,0,100,0.00,40.00,0,-999,0,0.00
2013-2-3,60,45,35,-100,-100,-100,0,0,100,0.00,40.00,0,-999,0,0.00
2013-2-4,66,48,33,-100,-100,-100,0,0,100,0.00,40.00,0,-999,0,0.00
2013-2-5,57,46,35,-100,-100,-100,0,0,100,0.00,40.00,0,-999,0,0.00
2013-2-6,62,45,35,-100,-100,-100,0,0,100,0.00,40.00,0,-999,0,0.00
2013-2-7,57,44,35,-100,-100,-100,0,0,100,0.00,40.00,0,-999,0,0.00
2013-2-8,55,43,32,-100,-100,-100,0,0,100,0.00,40.00,0,-999,0,0.00
2013-2-9,57,42,31,-100,-100,-100,0,0,100,0.00,40.00,0,-999,0,0.00
2013-2-10,59,43,29,-100,-100,-100,0,0,100,0.00,40.00,0,-999,0,0.00
2013-2-11,64,44,29,-100,-100,-100,0,0,100,0.00,40.00,0,-999,0,0.00
2013-2-12,66,46,32,-100,-100,-100,0,0,100,0.00,40.00,0,-999,0,0.00
2013-2-13,68,49,33,-100,-100,-100,0,0,100,0.00,40.00,0,-999,0,0.00
2013-2-14,68,50,35,-100,-100,-100,0,0,100,0.00,40.00,0,-999,0,0.00
2013-2-15,73,52,37,-100,-100,-100,0,0,100,0.00,40.00,0,-999,0,0.00
2013-2-16,71,52,39,-100,-100,-100,0,0,100,0.00,40.00,0,-999,0,0.00
2013-2-17,64,48,33,-100,-100,-100,0,0,100,0.00,40.00,0,-999,0,0.00
2013-2-18,62,47,33,-100,-100,-100,0,0,100,0.00,40.00,0,-999,0,0.00
2013-2-19,48,41,35,-100,-100,-100,0,0,100,0.00,40.00,0,-999,0,0.00
2013-2-20,59,42,29,-100,-100,-100,0,0,100,0.00,40.00,0,-999,0,0.00
2013-2-21,59,44,33,-100,-100,-100,0,0,100,0.00,40.00,0,-999,0,0.00
2013-2-22,66,48,32,-100,-100,-100,0,0,100,0.00,40.00,0,-999,0,0.00
2013-2-23,57,47,39,-100,-100,-100,0,0,100,0.00,40.00,0,-999,0,0.00
2013-2-24,62,47,35,-100,-100,-100,0,0,100,0.00,40.00,0,-999,0,0.00
2013-2-25,62,46,32,-100,-100,-100,0,0,100,0.00,40.00,0,-999,0,0.00
2013-2-26,66,48,33,-100,-100,-100,0,0,100,0.00,40.00,0,-999,0,0.00
2013-2-27,71,52,32,-100,-100,-100,0,0,100,0.00,40.00,0,-999,0,0.00
2013-2-28,71,52,41,-100,-100,-100,0,0,100,0.00,40.00,0,-999,0,0.00
2013-3-1,73,56,39,-100,-100,-100,0,0,100,0.00,40.00,0,-999,0,0.00
2013-3-2,80,57,42,-100,-100,-100,0,0,100,0.00,40.00,0,-999,0,0.00
2013-3-3,71,57,44,-100,-100,-100,0,0,100,0.00,40.00,0,-999,0,0.00
2013-3-4,68,50,39,-100,-100,-100,0,0,100,0.00,40.00,0,-999,0,0.00
2013-3-5,64,51,39,-100,-100,-100,0,0,100,0.00,40.00,0,-999,0,0.00
2013-3-6,62,51,44,-100,-100,-100,0,0,100,0.00,40.00,0,-999,0,0.00
2013-3-7,69,48,35,-100,-100,-100,0,0,100,0.00,40.00,0,-999,0,0.00
2013-3-8,64,47,35,-100,-100,-100,0,0,100,0.00,40.00,0,-999,0,0.00
2013-3-9,68,50,35,-100,-100,-100,0,0,100,0.00,40.00,0,-999,0,0.00
2013-3-10,71,54,37,-100,-100,-100,0,0,100,0.00,40.00,0,-999,0,0.00
2013-3-11,77,56,37,-100,-100,-100,0,0,100,0.00,40.00,0,-999,0,0.00
2013-3-12,78,60,41,-100,-100,-100,0,0,100,0.00,40.00,0,-999,0,0.00
2013-3-13,78,60,42,-100,-100,-100,0,0,100,0.00,40.00,0,-999,0,0.00
2013-3-14,84,60,46,-100,-100,-100,0,0,100,0.00,40.00,0,-999,0,0.00
2013-3-15,77,58,44,-100,-100,-100,0,0,100,0.00,40.00,0,-999,0,0.00
2013-3-16,77,56,41,-100,-100,-100,0,0,100,0.00,40.00,0,-999,0,0.00
2013-3-17,71,57,41,-100,-100,-100,0,0,100,0.00,40.00,0,-999,0,0.00
2013-3-18,73,56,39,-100,-100,-100,0,0,100,0.00,40.00,0,-999,0,0.00
2013-3-19,80,55,42,-100,-100,-100,0,0,100,0.00,40.00,0,-999,0,0.00
2013-3-20,68,56,48,-100,-100,-100,0,0,100,0.00,40.00,0,-999,0,0.00
2013-3-21,64,52,39,-100,-100,-100,0,0,100,0.00,40.00,0,-999,0,0.00
2013-3-22,64,52,44,-100,-100,-100,0,0,100,0.00,40.00,0,-999,0,0.00
2013-3-23,69,54,41,-100,-100,-100,0,0,100,0.00,40.00,0,-999,0,0.00
2013-3-24,77,54,37,-100,-100,-100,0,0,100,0.00,40.00,0,-999,0,0.00
2013-3-25,73,55,42,-100,-100,-100,0,0,100,0.00,40.00,0,-999,0,0.00
2013-3-26,75,58,42,-100,-100,-100,0,0,100,0.00,40.00,0,-999,0,0.00
2013-3-27,71,58,42,-100,-100,-100,0,0,100,0.00,40.00,0,-999,0,0.00
2013-3-28,75,62,50,-100,-100,-100,0,0,100,0.00,40.00,0,-999,0,0.00
2013-3-29,82,63,46,-100,-100,-100,0,0,100,0.00,40.00,0,-999,0,0.00
2013-3-30,78,61,48,-100,-100,-100,0,0,100,0.00,40.00,0,-999,0,0.00
2013-3-31,78,59,53,-100,-100,-100,0,0,100,0.00,40.00,0,-999,0,0.00
2013-4-1,77,59,50,-100,-100,-100,0,0,100,0.00,40.00,0,-999,0,0.00
2013-4-2,75,58,44,-100,-100,-100,0,0,100,0.00,40.00,0,-999,0,0.00
2013-4-3,82,60,46,-100,-100,-100,0,0,100,0.00,40.00,0,-999,0,0.00
2013-4-4,73,57,50,-100,-100,-100,0,0,100,0.00,40.00,0,-999,0,0.00
2013-4-5,71,57,48,-100,-100,-100,0,0,100,0.00,40.00,0,-999,0,0.00
2013-4-6,77,58,48,-100,-100,-100,0,0,100,0.00,40.00,0,-999,0,0.00
2013-4-7,69,58,48,-100,-100,-100,0,0,100,0.00,40.00,0,-999,0,0.00
2013-4-8,69,55,46,-100,-100,-100,0,0,100,0.00,40.00,0,-999,0,0.00
2013-4-9,75,60,48,-100,-100,-100,0,0,100,0.00,40.00,0,-999,0,0.00
2013-4-10,87,67,48,-100,-100,-100,0,0,100,0.00,40.00,0,-999,0,0.00
2013-4-11,78,63,48,-100,-100,-100,0,0,100,0.00,40.00,0,-999,0,0.00
2013-4-12,82,60,44,-100,-100,-100,0,0,100,0.00,40.00,0,-999,0,0.00
2013-4-13,82,61,44,-100,-100,-100,0,0,100,0.00,40.00,0,-999,0,0.00
2013-4-14,78,57,42,-100,-100,-100,0,0,100,0.00,40.00,0,-999,0,0.00
2013-4-15,69,54,42,-100,-100,-100,0,0,100,0.00,40.00,0,-999,0,0.00
2013-4-16,68,55,44,-100,-100,-100,0,0,100,0.00,40.00,0,-999,0,0.00
2013-4-17,73,56,44,-100,-100,-100,0,0,100,0.00,40.00,0,-999,0,0.00
2013-4-18,87,59,42,-100,-100,-100,0,0,100,0.00,40.00,0,-999,0,0.00
2013-4-19,89,64,44,-100,-100,-100,0,0,100,0.00,40.00,0,-999,0,0.00
2013-4-20,84,67,57,-100,-100,-100,0,0,100,0.00,40.00,0,-999,0,0.00
2013-4-21,95,67,46,-100,-100,-100,0,0,100,0.00,40.00,0,-999,0,0.00
2013-4-22,89,70,53,-100,-100,-100,0,0,100,0.00,40.00,0,-999,0,0.00
2013-4-23,86,69,55,-100,-100,-100,0,0,100,0.00,40.00,0,-999,0,0.00
2013-4-24,89,64,46,-100,-100,-100,0,0,100,0.00,40.00,0,-999,0,0.00
2013-4-25,77,61,48,-100,-100,-100,0,0,100,0.00,40.00,0,-999,0,0.00
2013-4-26,87,64,44,-100,-100,-100,0,0,100,0.00,40.00,0,-999,0,0.00
2013-4-27,95,66,46,-100,-100,-100,0,0,100,0.00,40.00,0,-999,0,0.00
2013-4-28,95,70,50,-100,-100,-100,0,0,100,0.00,40.00,0,-999,0,0.00
2013-4-29,91,72,57,-100,-100,-100,0,0,100,0.00,40.00,0,-999,0,0.00
2013-4-30,84,72,59,-100,-100,-100,0,0,100,0.00,40.00,0,-999,0,0.00
2013-5-1,91,71,57,-100,-100,-100,0,0,100,0.00,40.00,0,-999,0,0.00
2013-5-2,100,73,53,-100,-100,-100,0,0,100,0.00,40.00,0,-999,0,0.00
2013-5-3,98,71,53,-100,-100,-100,0,0,100,0.00,40.00,0,-999,0,0.00
2013-5-4,96,73,53,-100,-100,-100,0,0,100,0.00,40.00,0,-999,0,0.00
2013-5-5,84,62,51,-100,-100,-100,0,0,100,0.00,40.00,0,-999,0,0.00
2013-5-6,77,64,53,-100,-100,-100,0,0,100,0.00,40.00,0,-999,0,0.00
2013-5-7,80,63,55,-100,-100,-100,0,0,100,0.00,40.00,0,-999,0,0.00
2013-5-8,82,62,53,-100,-100,-100,0,0,100,0.00,40.00,0,-999,0,0.00
2013-5-9,82,64,48,-100,-100,-100,0,0,100,0.00,40.00,0,-999,0,0.00
2013-5-10,91,66,50,-100,-100,-100,0,0,100,0.00,40.00,0,-999,0,0.00
2013-5-11,98,71,53,-100,-100,-100,0,0,100,0.00,40.00,0,-999,0,0.00
2013-5-12,95,75,55,-100,-100,-100,0,0,100,0.00,40.00,0,-999,0,0.00
2013-5-13,96,73,53,-100,-100,-100,0,0,100,0.00,40.00,0,-999,0,0.00
2013-5-14,91,70,53,-100,-100,-100,0,0,100,0.00,40.00,0,-999,0,0.00
2013-5-15,82,65,50,-100,-100,-100,0,0,100,0.00,40.00,0,-999,0,0.00
2013-5-16,84,64,53,-100,-100,-100,0,0,100,0.00,40.00,0,-999,0,0.00
2013-5-17,80,62,46,-100,-100,-100,0,0,100,0.00,40.00,0,-999,0,0.00
2013-5-18,91,64,46,-100,-100,-100,0,0,100,0.00,40.00,0,-999,0,0.00
2013-5-19,89,69,50,-100,-100,-100,0,0,100,0.00,40.00,0,-999,0,0.00
2013-5-20,104,74,57,-100,-100,-100,0,0,100,0.00,40.00,0,-999,0,0.00
2013-5-21,80,66,53,-100,-100,-100,0,0,100,0.00,40.00,0,-999,0,0.00
2013-5-22,78,60,46,-100,-100,-100,0,0,100,0.00,40.00,0,-999,0,0.00
2013-5-23,87,62,44,-100,-100,-100,0,0,100,0.00,40.00,0,-999,0,0.00
2013-5-24,84,65,44,-100,-100,-100,0,0,100,0.00,40.00,0,-999,0,0.00
2013-5-25,84,62,46,-100,-100,-100,0,0,100,0.00,40.00,0,-999,0,0.00
2013-5-26,84,63,48,-100,-100,-100,0,0,100,0.00,40.00,0,-999,0,0.00
2013-5-27,73,60,48,-100,-100,-100,0,0,100,0.00,40.00,0,-999,0,0.00
2013-5-28,86,68,55,-100,-100,-100,0,0,100,0.00,40.00,0,-999,0,0.00
2013-5-29,87,69,55,-100,-100,-100,0,0,100,0.00,40.00,0,-999,0,0.00
2013-5-30,93,68,48,-100,-100,-100,0,0,100,0.00,40.00,0,-999,0,0.00
2013-5-31,98,72,50,-100,-100,-100,0,0,100,0.00,40.00,0,-999,0,0.00
2013-6-1,107,77,55,-100,-100,-100,0,0,100,0.00,40.00,0,-999,0,0.00
2013-6-2,102,78,57,-100,-100,-100,0,0,100,0.00,40.00,0,-999,0,0.00
2013-6-3,87,71,55,-100,-100,-100,0,0,100,0.00,40.00,0,-999,0,0.00
2013-6-4,86,66,53,-100,-100,-100,0,0,100,0.00,40.00,0,-999,0,0.00
2013-6-5,91,67,51,-100,-100,-100,0,0,100,0.00,40.00,0,-999,0,0.00
2013-6-6,102,70,51,-100,-100,-100,0,0,100,0.00,40.00,0,-999,0,0.00
2013-6-7,109,78,55,-100,-100,-100,0,0,100,0.00,40.00,0,-999,0,0.00
2013-6-8,111,86,62,-100,-100,-100,0,0,100,0.00,40.00,0,-999,0,0.00
2013-6-9,80,67,57,-100,-100,-100,0,0,100,0.00,40.00,0,-999,0,0.00
2013-6-10,80,63,55,-100,-100,-100,0,0,100,0.00,40.00,0,-999,0,0.00
2013-6-11,91,69,51,-100,-100,-100,0,0,100,0.00,40.00,0,-999,0,0.00
2013-6-12,93,70,53,-100,-100,-100,0,0,100,0.00,40.00,0,-999,0,0.00
2013-6-13,89,68,48,-100,-100,-100,0,0,100,0.00,40.00,0,-999,0,0.00
2013-6-14,98,72,55,-100,-100,-100,0,0,100,0.00,40.00,0,-999,0,0.00
2013-6-15,91,72,51,-100,-100,-100,0,0,100,0.00,40.00,0,-999,0,0.00
2013-6-16,93,75,50,-100,-100,-100,0,0,100,0.00,40.00,0,-999,0,0.00
2013-6-17,87,71,53,-100,-100,-100,0,0,100,0.00,40.00,0,-999,0,0.00
2013-6-18,82,67,51,-100,-100,-100,0,0,100,0.00,40.00,0,-999,0,0.00
2013-6-19,91,64,46,-100,-100,-100,0,0,100,0.00,40.00,0,-999,0,0.00
2013-6-20,80,64,50,-100,-100,-100,0,0,100,0.00,40.00,0,-999,0,0.00
2013-6-22,98,84,64,-100,-100,-100,0,0,100,0.00,40.00,0,-999,0,0.00
2013-6-23,80,66,57,-100,-100,-100,0,0,100,0.00,40.00,0,-999,0,0.00
2013-6-24,71,62,59,-100,-100,-100,0,0,100,0.00,40.00,0,-999,0,0.00
2013-6-25,82,68,59,-100,-100,-100,0,0,100,0.00,40.00,0,-999,0,0.00
2013-6-26,93,73,59,-100,-100,-100,0,0,100,0.00,40.00,0,-999,0,0.00
2013-6-27,98,76,59,-100,-100,-100,0,0,100,0.00,40.00,0,-999,0,0.00
2013-6-28,105,81,64,-100,-100,-100,0,0,100,0.00,40.00,0,-999,0,0.00
2013-6-29,111,86,66,-100,-100,-100,0,0,100,0.00,40.00,0,-999,0,0.00
2013-6-30,109,83,66,-100,-100,-100,0,0,100,0.00,40.00,0,-999,0,0.00
2013-7-1,113,84,64,-100,-100,-100,0,0,100,0.00,40.00,0,-999,0,0.00
2013-7-2,107,85,69,-100,-100,-100,0,0,100,0.00,40.00,0,-999,0,0.00
2013-7-3,109,85,64,-100,-100,-100,0,0,100,0.00,40.00,0,-999,0,0.00
2013-7-4,111,87,69,-100,-100,-100,0,0,100,0.00,40.00,0,-999,0,0.00
2013-7-5,91,75,62,-100,-100,-100,0,0,100,0.00,40.00,0,-999,0,0.00
2013-7-6,93,65,53,-100,-100,-100,0,0,100,0.00,40.00,0,-999,0,0.00
2013-7-7,98,72,53,-100,-100,-100,0,0,100,0.00,40.00,0,-999,0,0.00
2013-7-8,100,69,51,-100,-100,-100,0,0,100,0.00,40.00,0,-999,0,0.00
2013-7-9,105,79,57,-100,-100,-100,0,0,100,0.00,40.00,0,-999,0,0.00
2013-7-10,98,76,59,-100,-100,-100,0,0,100,0.00,40.00,0,-999,0,0.00
2013-7-11,93,67,51,-100,-100,-100,0,0,100,0.00,40.00,0,-999,0,0.00
2013-7-12,91,68,51,-100,-100,-100,0,0,100,0.00,40.00,0,-999,0,0.00
2013-7-13,100,76,55,-100,-100,-100,0,0,100,0.00,40.00,0,-999,0,0.00
2013-7-14,100,72,55,-100,-100,-100,0,0,100,0.00,40.00,0,-999,0,0.00
2013-7-15,87,68,53,-100,-100,-100,0,0,100,0.00,40.00,0,-999,0,0.00
2013-7-16,82,64,51,-100,-100,-100,0,0,100,0.00,40.00,0,-999,0,0.00
2013-7-17,95,67,50,-100,-100,-100,0,0,100,0.00,40.00,0,-999,0,0.00
2013-7-18,100,77,51,-100,-100,-100,0,0,100,0.00,40.00,0,-999,0,0.00
2013-7-19,100,73,55,-100,-100,-100,0,0,100,0.00,40.00,0,-999,0,0.00
2013-7-20,102,77,57,-100,-100,-100,0,0,100,0.00,40.00,0,-999,0,0.00
2013-7-21,98,76,59,-100,-100,-100,0,0,100,0.00,40.00,0,-999,0,0.00
2013-7-22,95,79,59,-100,-100,-100,0,0,100,0.00,40.00,0,-999,0,0.00
2013-7-23,96,77,64,-100,-100,-100,0,0,100,0.00,40.00,0,-999,0,0.00
2013-7-24,102,80,60,-100,-100,-100,0,0,100,0.00,40.00,0,-999,0,0.00
2013-7-25,96,81,64,-100,-100,-100,0,0,100,0.00,40.00,0,-999,0,0.00
2013-7-26,96,71,57,-100,-100,-100,0,0,100,0.00,40.00,0,-999,0,0.00
2013-7-27,96,74,55,-100,-100,-100,0,0,100,0.00,40.00,0,-999,0,0.00
2013-7-28,89,70,53,-100,-100,-100,0,0,100,0.00,40.00,0,-999,0,0.00
2013-7-29,84,63,51,-100,-100,-100,0,0,100,0.00,40.00,0,-999,0,0.00
2013-7-30,93,69,51,-100,-100,-100,0,0,100,0.00,40.00,0,-999,0,0.00
2013-7-31,91,68,53,-100,-100,-100,0,0,100,0.00,40.00,0,-999,0,0.00
2013-8-1,89,74,51,-100,-100,-100,0,0,100,0.00,40.00,0,-999,0,0.00
2013-8-2,96,70,51,-100,-100,-100,0,0,100,0.00,40.00,0,-999,0,0.00
2013-8-3,93,71,53,-100,-100,-100,0,0,100,0.00,40.00,0,-999,0,0.00
2013-8-4,93,65,51,-100,-100,-100,0,0,100,0.00,40.00,0,-999,0,0.00
2013-8-5,93,69,53,-100,-100,-100,0,0,100,0.00,40.00,0,-999,0,0.00
2013-8-6,86,64,50,-100,-100,-100,0,0,100,0.00,40.00,0,-999,0,0.00
2013-8-7,82,66,53,-100,-100,-100,0,0,100,0.00,40.00,0,-999,0,0.00
2013-8-8,82,66,53,-100,-100,-100,0,0,100,0.00,40.00,0,-999,0,0.00
2013-8-9,76,64,52,-100,-100,-100,0,0,100,0.00,40.00,0,-999,0,0.00
2013-8-10,80,66,54,-100,-100,-100,0,0,100,0.00,40.00,0,-999,0,0.00
2013-8-11,84,69,54,-100,-100,-100,0,0,100,0.00,40.00,0,-999,0,0.00
2013-8-12,86,72,57,-100,-100,-100,0,0,100,0.00,40.00,0,-999,0,0.00
2013-8-13,91,70,54,-100,-100,-100,0,0,100,0.00,40.00,0,-999,0,0.00
2013-8-14,90,71,58,-100,-100,-100,0,0,100,0.00,40.00,0,-999,0,0.00
2013-8-15,89,70,58,-100,-100,-100,0,0,100,0.00,40.00,0,-999,0,0.00
2013-8-16,91,71,59,-100,-100,-100,0,0,100,0.00,40.00,0,-999,0,0.00
2013-8-17,88,73,60,-100,-100,-100,0,0,100,0.00,40.00,0,-999,0,0.00
2013-8-18,94,76,59,-100,-100,-100,0,0,100,0.00,40.00,0,-999,0,0.00
2013-8-19,98,78,65,-100,-100,-100,0,0,100,0.00,40.00,0,-999,0,0.00
2013-8-20,87,72,61,-100,-100,-100,0,0,100,0.00,40.00,0,-999,0,0.00
2013-8-21,83,66,56,-100,-100,-100,0,0,100,0.00,40.00,0,-999,0,0.00
2013-8-22,78,67,54,-100,-100,-100,0,0,100,0.00,40.00,0,-999,0,0.00
2013-8-23,83,65,52,-100,-100,-100,0,0,100,0.00,40.00,0,-999,0,0.00
2013-8-24,83,67,55,-100,-100,-100,0,0,100,0.00,40.00,0,-999,0,0.00
2013-8-25,83,68,58,-100,-100,-100,0,0,100,0.00,40.00,0,-999,0,0.00
2013-8-26,83,68,56,-100,-100,-100,0,0,100,0.00,40.00,0,-999,0,0.00
2013-8-27,81,61,55,-100,-100,-100,0,0,100,0.00,40.00,0,-999,0,0.00
2013-8-28,87,75,65,-100,-100,-100,0,0,100,0.00,40.00,0,-999,0,0.00
2013-8-29,87,71,58,-100,-100,-100,0,0,100,0.00,40.00,0,-999,0,0.00
2013-8-30,93,70,54,-100,-100,-100,0,0,100,0.00,40.00,0,-999,0,0.00
2013-8-31,88,70,60,-100,-100,-100,0,0,100,0.00,40.00,0,-999,0,0.00
2013-9-1,85,70,59,-100,-100,-100,0,0,100,0.00,40.00,0,-999,0,0.00
2013-9-2,76,68,64,-100,-100,-100,0,0,100,0.00,40.00,0,-999,0,0.00
2013-9-3,80,69,58,-100,-100,-100,0,0,100,0.00,40.00,0,-999,0,0.00
2013-9-4,83,67,57,-100,-100,-100,0,0,100,0.00,40.00,0,-999,0,0.00
2013-9-5,82,68,55,-100,-100,-100,0,0,100,0.00,40.00,0,-999,0,0.00
2013-9-6,90,71,53,-100,-100,-100,0,0,100,0.00,40.00,0,-999,0,0.00
2013-9-7,94,74,56,-100,-100,-100,0,0,100,0.00,40.00,0,-999,0,0.00
2013-9-8,97,77,59,-100,-100,-100,0,0,100,0.00,40.00,0,-999,0,0.00
2013-9-9,98,78,59,-100,-100,-100,0,0,100,0.00,40.00,0,-999,0,0.00
2013-9-10,80,68,58,-100,-100,-100,0,0,100,0.00,40.00,0,-999,0,0.00
2013-9-11,76,64,59,-100,-100,-100,0,0,100,0.00,40.00,0,-999,0,0.00
2013-9-12,83,67,57,-100,-100,-100,0,0,100,0.00,40.00,0,-999,0,0.00
2013-9-13,87,68,57,-100,-100,-100,0,0,100,0.00,40.00,0,-999,0,0.00
2013-9-14,81,66,56,-100,-100,-100,0,0,100,0.00,40.00,0,-999,0,0.00
2013-9-15,83,66,54,-100,-100,-100,0,0,100,0.00,40.00,0,-999,0,0.00
2013-9-16,83,65,54,-100,-100,-100,0,0,100,0.00,40.00,0,-999,0,0.00
2013-9-17,78,64,54,-100,-100,-100,0,0,100,0.00,40.00,0,-999,0,0.00
2013-9-18,76,62,56,-100,-100,-100,0,0,100,0.00,40.00,0,-999,0,0.00
2013-9-19,87,67,51,-100,-100,-100,0,0,100,0.00,40.00,0,-999,0,0.00
2013-9-20,76,65,53,-100,-100,-100,0,0,100,0.00,40.00,0,-999,0,0.00
2013-9-21,66,60,55,-100,-100,-100,0,0,100,0.00,40.00,0,-999,0,0.00
2013-9-22,70,59,51,-100,-100,-100,0,0,100,0.00,40.00,0,-999,0,0.00
2013-9-23,80,65,53,-100,-100,-100,0,0,100,0.00,40.00,0,-999,0,0.00
2013-9-24,76,63,55,-100,-100,-100,0,0,100,0.00,40.00,0,-999,0,0.00
2013-9-25,70,59,47,-100,-100,-100,0,0,100,0.00,40.00,0,-999,0,0.00
2013-9-26,72,61,51,-100,-100,-100,0,0,100,0.00,40.00,0,-999,0,0.00
2013-9-27,76,64,51,-100,-100,-100,0,0,100,0.00,40.00,0,-999,0,0.00
2013-9-28,80,64,47,-100,-100,-100,0,0,100,0.00,40.00,0,-999,0,0.00
2013-9-29,74,64,54,-100,-100,-100,0,0,100,0.00,40.00,0,-999,0,0.00
2013-9-30,73,63,55,-100,-100,-100,0,0,100,0.00,40.00,0,-999,0,0.00
2013-10-1,75,67,57,-100,-100,-100,0,0,100,0.00,40.00,0,-999,0,0.00
2013-10-2,75,60,51,-100,-100,-100,0,0,100,0.00,40.00,0,-999,0,0.00
2013-10-3,72,63,54,-100,-100,-100,0,0,100,0.00,40.00,0,-999,0,0.00
2013-10-4,80,67,55,-100,-100,-100,0,0,100,0.00,40.00,0,-999,0,0.00
2013-10-5,80,63,46,-100,-100,-100,0,0,100,0.00,40.00,0,-999,0,0.00
2013-10-6,80,65,47,-100,-100,-100,0,0,100,0.00,40.00,0,-999,0,0.00
2013-10-7,81,65,50,-100,-100,-100,0,0,100,0.00,40.00,0,-999,0,0.00
2013-10-8,73,60,48,-100,-100,-100,0,0,100,0.00,40.00,0,-999,0,0.00
2013-10-9,71,60,52,-100,-100,-100,0,0,100,0.00,40.00,0,-999,0,0.00
2013-10-10,71,60,47,-100,-100,-100,0,0,100,0.00,40.00,0,-999,0,0.00
2013-10-11,72,58,47,-100,-100,-100,0,0,100,0.00,40.00,0,-999,0,0.00
2013-10-12,72,55,47,-100,-100,-100,0,0,100,0.00,40.00,0,-999,0,0.00
2013-10-13,73,60,48,-100,-100,-100,0,0,100,0.00,40.00,0,-999,0,0.00
2013-10-14,75,59,47,-100,-100,-100,0,0,100,0.00,40.00,0,-999,0,0.00
2013-10-15,79,61,45,-100,-100,-100,0,0,100,0.00,40.00,0,-999,0,0.00
2013-10-16,78,61,44,-100,-100,-100,0,0,100,0.00,40.00,0,-999,0,0.00
2013-10-17,79,62,45,-100,-100,-100,0,0,100,0.00,40.00,0,-999,0,0.00
2013-10-18,79,62,44,-100,-100,-100,0,0,100,0.00,40.00,0,-999,0,0.00
2013-10-19,81,60,47,-100,-100,-100,0,0,100,0.00,40.00,0,-999,0,0.00
2013-10-20,79,63,43,-100,-100,-100,0,0,100,0.00,40.00,0,-999,0,0.00
2013-10-21,78,62,48,-100,-100,-100,0,0,100,0.00,40.00,0,-999,0,0.00
2013-10-22,82,64,47,-100,-100,-100,0,0,100,0.00,40.00,0,-999,0,0.00
2013-10-23,80,66,47,-100,-100,-100,0,0,100,0.00,40.00,0,-999,0,0.00
2013-10-24,64,56,46,-100,-100,-100,0,0,100,0.00,40.00,0,-999,0,0.00
2013-10-25,73,56,43,-100,-100,-100,0,0,100,0.00,40.00,0,-999,0,0.00
2013-10-26,77,57,43,-100,-100,-100,0,0,100,0.00,40.00,0,-999,0,0.00
2013-10-27,65,55,44,-100,-100,-100,0,0,100,0.00,40.00,0,-999,0,0.00
2013-10-28,62,52,44,-100,-100,-100,0,0,100,0.00,40.00,0,-999,0,0.00
2013-10-29,62,55,47,-100,-100,-100,0,0,100,0.00,40.00,0,-999,0,0.00
2013-10-30,65,53,41,-100,-100,-100,0,0,100,0.00,40.00,0,-999,0,0.00
2013-10-31,69,55,39,-100,-100,-100,0,0,100,0.00,40.00,0,-999,0,0.00
2013-11-1,73,57,43,-100,-100,-100,0,0,100,0.00,40.00,0,-999,0,0.00
2013-11-2,73,53,42,-100,-100,-100,0,0,100,0.00,40.00,0,-999,0,0.00
2013-11-3,62,56,50,-100,-100,-100,0,0,100,0.00,40.00,0,-999,0,0.00
2013-11-4,66,57,45,-100,-100,-100,0,0,100,0.00,40.00,0,-999,0,0.00
2013-11-5,65,54,40,-100,-100,-100,0,0,100,0.00,40.00,0,-999,0,0.00
2013-11-6,70,56,43,-100,-100,-100,0,0,100,0.00,40.00,0,-999,0,0.00
2013-11-7,73,59,45,-100,-100,-100,0,0,100,0.00,40.00,0,-999,0,0.00
2013-11-8,72,58,41,-100,-100,-100,0,0,100,0.00,40.00,0,-999,0,0.00
2013-11-9,71,58,43,-100,-100,-100,0,0,100,0.00,40.00,0,-999,0,0.00
2013-11-10,69,57,42,-100,-100,-100,0,0,100,0.00,40.00,0,-999,0,0.00
2013-11-11,67,56,37,-100,-100,-100,0,0,100,0.00,40.00,0,-999,0,0.00
2013-11-12,69,60,49,-100,-100,-100,0,0,100,0.00,40.00,0,-999,0,0.00
2013-11-13,75,54,42,-100,-100,-100,0,0,100,0.00,40.00,0,-999,0,0.00
2013-11-14,64,54,46,-100,-100,-100,0,0,100,0.00,40.00,0,-999,0,0.00
2013-11-15,65,49,40,-100,-100,-100,0,0,100,0.00,40.00,0,-999,0,0.00
2013-11-16,61,50,40,-100,-100,-100,0,0,100,0.00,40.00,0,-999,0,0.00
2013-11-17,59,48,38,-100,-100,-100,0,0,100,0.00,40.00,0,-999,0,0.00
2013-11-18,57,48,39,-100,-100,-100,0,0,100,0.00,40.00,0,-999,0,0.00
2013-11-19,58,53,47,-100,-100,-100,0,0,100,0.00,40.00,0,-999,0,0.00
2013-11-20,54,53,51,-100,-100,-100,0,0,100,0.00,40.00,0,-999,0,0.00
2013-11-21,57,52,46,-100,-100,-100,0,0,100,0.00,40.00,0,-999,0,0.00
2013-11-22,68,52,43,-100,-100,-100,0,0,100,0.00,40.00,0,-999,0,0.00
2013-11-23,58,48,36,-100,-100,-100,0,0,100,0.00,40.00,0,-999,0,0.00
2013-11-24,60,47,37,-100,-100,-100,0,0,100,0.00,40.00,0,-999,0,0.00
2013-11-25,60,47,36,-100,-100,-100,0,0,100,0.00,40.00,0,-999,0,0.00
2013-11-26,58,46,37,-100,-100,-100,0,0,100,0.00,40.00,0,-999,0,0.00
2013-11-27,59,48,42,-100,-100,-100,0,0,100,0.00,40.00,0,-999,0,0.00
2013-11-28,65,49,40,-100,-100,-100,0,0,100,0.00,40.00,0,-999,0,0.00
2013-11-29,65,49,40,-100,-100,-100,0,0,100,0.00,40.00,0,-999,0,0.00
2013-11-30,65,52,39,-100,-100,-100,0,0,100,0.00,40.00,0,-999,0,0.00
2013-12-1,65,52,38,-100,-100,-100,0,0,100,0.00,40.00,0,-999,0,0.00
2013-12-2,62,49,39,-100,-100,-100,0,0,100,0.00,40.00,0,-999,0,0.00
2013-12-3,52,47,38,-100,-100,-100,0,0,100,0.00,40.00,0,-999,0,0.00
2013-12-4,45,37,30,-100,-100,-100,0,0,100,0.00,40.00,0,-999,0,0.00
2013-12-5,47,38,27,-100,-100,-100,0,0,100,0.00,40.00,0,-999,0,0.00
2013-12-6,43,34,24,-100,-100,-100,0,0,100,0.00,40.00,0,-999,0,0.00
2013-12-7,43,37,31,-100,-100,-100,0,0,100,0.00,40.00,0,-999,0,0.00
2013-12-8,40,31,26,-100,-100,-100,0,0,100,0.00,40.00,0,-999,0,0.00
2013-12-9,44,34,24,-100,-100,-100,0,0,100,0.00,40.00,0,-999,0,0.00
2013-12-10,47,36,25,-100,-100,-100,0,0,100,0.00,40.00,0,-999,0,0.00
2013-12-11,52,40,29,-100,-100,-100,0,0,100,0.00,40.00,0,-999,0,0.00
2013-12-12,56,42,29,-100,-100,-100,0,0,100,0.00,40.00,0,-999,0,0.00
2013-12-13,54,42,29,-100,-100,-100,0,0,100,0.00,40.00,0,-999,0,0.00
2013-12-14,57,43,30,-100,-100,-100,0,0,100,0.00,40.00,0,-999,0,0.00
2013-12-15,58,40,29,-100,-100,-100,0,0,100,0.00,40.00,0,-999,0,0.00
2013-12-16,60,43,30,-100,-100,-100,0,0,100,0.00,40.00,0,-999,0,0.00
2013-12-17,60,46,35,-100,-100,-100,0,0,100,0.00,40.00,0,-999,0,0.00
2013-12-18,58,47,36,-100,-100,-100,0,0,100,0.00,40.00,0,-999,0,0.00
2013-12-19,57,46,36,-100,-100,-100,0,0,100,0.00,40.00,0,-999,0,0.00
2013-12-20,58,46,35,-100,-100,-100,0,0,100,0.00,40.00,0,-999,0,0.00
2013-12-21,57,46,33,-100,-100,-100,0,0,100,0.00,40.00,0,-999,0,0.00
2013-12-22,58,45,32,-100,-100,-100,0,0,100,0.00,40.00,0,-999,0,0.00
2013-12-23,62,50,35,-100,-100,-100,0,0,100,0.00,40.00,0,-999,0,0.00
2013-12-24,62,44,34,-100,-100,-100,0,0,100,0.00,40.00,0,-999,0,0.00
2013-12-25,61,45,34,-100,-100,-100,0,0,100,0.00,40.00,0,-999,0,0.00
2013-12-26,62,45,31,-100,-100,-100,0,0,100,0.00,40.00,0,-999,0,0.00
2013-12-27,56,43,31,-100,-100,-100,0,0,100,0.00,40.00,0,-999,0,0.00
2013-12-28,65,49,29,-100,-100,-100,0,0,100,0.00,40.00,0,-999,0,0.00
2013-12-29,59,44,32,-100,-100,-100,0,0,100,0.00,40.00,0,-999,0,0.00
2013-12-30,59,44,32,-100,-100,-100,0,0,100,0.00,40.00,0,-999,0,0.00
2013-12-31,61,46,36,-100,-100,-100,0,0,100,0.00,40.00,0,-999,0,0.00
2014-1-1,59,46,32,-100,-100,-100,0,0,100,0.00,40.00,0,-999,0,0.00
2014-1-2,62,47,34,-100,-100,-100,0,0,100,0.00,40.00,0,-999,0,0.00